This demonstration page uses our WeatherBlox Daily Observations layout. Learn more.

Left ArrowRight Arrow

Hourly Observations for April 23, 2022

Temp ( °F °C ) Dew Point ( °F °C ) Humidity (%) Winds ( mph kmh ) Pressure ( in mb ) Visibility ( mi km ) Precip ( " mm )
12:15 am 00:15 Partly Cloudy 71 21.6 60 15.7 69 69 S 44 70 29.37 994 7 11 0.00 0.00
12:35 am 00:35 Partly Cloudy with Nearby Thunderstorms 70 21.2 60 15.7 71 71 SSE 39 63 29.35 994 10 16 0.00 0.00
12:55 am 00:55 Cloudy 70 21 60 15.6 71 71 SSE 37 59 29.35 994 10 16 0.00 0.00
1:15 am 01:15 Cloudy 70 21 60 15.5 71 71 SSE 32 52 29.34 994 10 16 0.00 0.00
1:35 am 01:35 Mostly Cloudy 70 21 59 15.1 69 69 S 40 65 29.32 993 10 16 0.00 0.00
1:55 am 01:55 Mostly Cloudy 69 20.7 59 15 70 70 SSE 38 61 29.30 992 10 16 0.00 0.00
2:15 am 02:15 Partly Cloudy 69 20.6 58 14.7 69 69 S 36 57 29.29 992 10 16 0.00 0.00
2:35 am 02:35 Partly Cloudy with Nearby Thunderstorms 69 20.6 58 14.5 68 68 S 38 61 29.28 992 10 16 0.00 0.00
2:55 am 02:55 Cloudy 69 20.8 58 14.3 66 66 S 40 65 29.30 992 10 16 0.00 0.00
3:15 am 03:15 Cloudy 65 18.6 61 15.9 84 84 SSW 25 41 29.36 994 4 6 0.02 0.51
3:35 am 03:35 Cloudy with Light Rain 62 16.5 54 12.4 77 77 SW 24 39 29.40 996 7 11 0.03 0.76
3:55 am 03:55 Cloudy with Rain 59 15 54 12.1 83 83 SW 10 17 29.40 996 5 8 0.04 1.02
4:15 am 04:15 Cloudy with Rain 58 14.5 54 12.2 86 86 SSE 9 15 29.37 995 7 11 0.03 0.76
4:35 am 04:35 Mostly Cloudy with Light Rain 57 14 54 12.2 89 89 ESE 22 35 29.29 992 10 16 0.04 1.02
4:55 am 04:55 Partly Cloudy 57 13.7 54 12.1 90 90 SE 16 26 29.31 993 10 16 0.04 1.02
5:15 am 05:15 Partly Cloudy 57 14.1 53 11.6 85 85 SSE 16 26 29.32 993 10 16 0.00 0.00
5:35 am 05:35 Mostly Cloudy 58 14.2 52 11.2 82 82 SSE 21 33 29.33 993 10 16 0.00 0.00
5:55 am 05:55 Cloudy 57 13.8 52 11.1 84 84 SSE 20 31 29.31 993 10 16 0.00 0.00
6:15 am 06:15 Partly Cloudy 56 13.3 52 11 86 86 SSE 23 37 29.29 992 10 16 0.00 0.00
6:35 am 06:35 Clear 55 13 50 10 82 82 S 23 37 29.31 992 10 16 0.00 0.00
6:55 am 06:55 Sunny 55 12.5 49 9.6 83 83 S 26 43 29.32 993 10 16 0.00 0.00
7:15 am 07:15 Sunny 53 11.9 49 9.5 85 85 S 23 37 29.35 994 10 16 0.00 0.00
7:35 am 07:35 Sunny 53 11.8 49 9.3 85 85 SSW 24 39 29.36 994 10 16 0.00 0.00
7:55 am 07:55 Sunny 54 12.1 48 8.8 80 80 SW 18 30 29.36 994 10 16 0.00 0.00
8:15 am 08:15 Sunny 55 12.5 47 8.2 75 75 SW 20 31 29.36 994 10 16 0.00 0.00
8:35 am 08:35 Sunny 55 12.7 47 8.2 74 74 SW 21 33 29.37 995 10 16 0.00 0.00
8:55 am 08:55 Partly Cloudy 56 13.5 47 8.4 71 71 SW 21 33 29.38 995 10 16 0.00 0.00
9:15 am 09:15 Partly Cloudy 57 14.1 47 8.5 69 69 WSW 18 30 29.38 995 10 16 0.00 0.00
9:35 am 09:35 Sunny 58 14.5 47 8.1 66 66 SW 17 28 29.37 995 10 16 0.00 0.00
9:55 am 09:55 Sunny 59 14.8 46 7.7 63 63 SW 16 26 29.38 995 10 16 0.00 0.00
10:15 am 10:15 Sunny 60 15.5 44 6.7 56 56 WSW 17 28 29.39 995 10 16 0.00 0.00
10:35 am 10:35 Sunny 60 15.8 43 6.2 53 53 WSW 20 31 29.40 996 10 16 0.00 0.00
10:55 am 10:55 Sunny 62 16.5 42 5.7 49 49 WSW 18 30 29.41 996 10 16 0.00 0.00
11:15 am 11:15 Sunny 64 17.5 41 5 44 44 WSW 22 35 29.40 996 10 16 0.00 0.00
11:35 am 11:35 Sunny 64 17.8 41 5.1 43 43 WSW 23 37 29.41 996 10 16 0.00 0.00
11:55 am 11:55 Sunny 65 18.3 41 4.9 41 41 W 24 39 29.41 996 10 16 0.00 0.00
12:15 pm 12:15 Partly Cloudy 65 18.2 39 4.1 39 39 W 25 41 29.43 997 10 16 0.00 0.00
12:35 pm 12:35 Partly Cloudy 65 18.1 40 4.2 40 40 W 29 46 29.44 997 10 16 0.00 0.00
12:55 pm 12:55 Partly Cloudy 64 17.7 38 3.5 39 39 W 25 41 29.46 998 10 16 0.00 0.00
1:15 pm 13:15 Partly Cloudy 64 17.7 37 2.5 36 36 W 28 44 29.47 998 10 16 0.00 0.00
1:35 pm 13:35 Partly Cloudy 64 17.7 34 0.9 32 32 W 24 39 29.47 998 10 16 0.00 0.00
1:55 pm 13:55 Partly Cloudy 64 18 33 0.8 32 32 WSW 23 37 29.47 998 10 16 0.00 0.00
2:15 pm 14:15 Sunny 65 18.1 32 0 30 30 W 28 44 29.47 998 10 16 0.00 0.00
2:35 pm 14:35 Sunny 65 18.2 32 0 29 29 W 29 46 29.48 998 10 16 0.00 0.00
2:55 pm 14:55 Partly Cloudy 65 18.1 32 0.2 30 30 W 26 43 29.49 999 10 16 0.00 0.00
3:15 pm 15:15 Partly Cloudy 63 17.4 32 -0.1 31 31 W 33 54 29.52 1000 10 16 0.00 0.00
3:35 pm 15:35 Partly Cloudy 63 17.2 32 -0.1 31 31 W 29 46 29.54 1000 10 16 0.00 0.00
3:55 pm 15:55 Partly Cloudy 63 17.1 31 -0.6 30 30 W 24 39 29.54 1000 10 16 0.00 0.00
4:15 pm 16:15 Partly Cloudy 63 17 31 -0.7 30 30 W 26 43 29.55 1001 10 16 0.00 0.00
4:35 pm 16:35 Partly Cloudy 62 16.9 29 -1.4 29 29 W 32 52 29.55 1001 10 16 0.00 0.00
4:55 pm 16:55 Partly Cloudy 63 17 30 -1.1 29 29 W 32 52 29.56 1001 10 16 0.00 0.00
5:15 pm 17:15 Partly Cloudy 61 16.3 30 -1.3 30 30 W 30 48 29.58 1002 10 16 0.00 0.00
5:35 pm 17:35 Sunny 59 14.9 30 -1.1 34 34 WNW 38 61 29.59 1002 10 16 0.00 0.00
5:55 pm 17:55 Sunny 57 13.7 29 -1.5 35 35 W 36 57 29.60 1002 10 16 0.00 0.00
6:15 pm 18:15 Hazy 56 13.3 30 -1.1 37 37 WNW 37 59 29.59 1002 5 8 0.00 0.00
6:35 pm 18:35 Sunny 54 12.4 29 -1.6 38 38 WNW 37 59 29.64 1004 7 11 0.00 0.00
6:55 pm 18:55 Sunny 54 12 29 -1.6 39 39 W 36 57 29.66 1004 10 16 0.00 0.00
7:15 pm 19:15 Sunny 52 11.1 29 -1.5 42 42 WNW 37 59 29.64 1004 10 16 0.00 0.00
7:35 pm 19:35 Sunny 52 10.9 29 -1.6 42 42 WNW 36 57 29.66 1005 7 11 0.00 0.00
7:55 pm 19:55 Sunny 50 10.1 28 -2 43 43 WNW 33 54 29.69 1005 10 16 0.00 0.00
8:15 pm 20:15 Sunny 49 9.3 29 -1.5 47 47 WNW 35 56 29.72 1006 10 16 0.00 0.00
8:35 pm 20:35 Clear 48 8.8 29 -1.4 49 49 WNW 28 44 29.73 1007 10 16 0.00 0.00
8:55 pm 20:55 Clear 47 8.1 29 -1.8 50 50 WNW 32 52 29.76 1008 10 16 0.00 0.00
9:15 pm 21:15 Clear 46 7.8 29 -1.7 51 51 WNW 24 39 29.78 1009 10 16 0.00 0.00
9:35 pm 21:35 Clear 46 7.6 29 -1.5 53 53 WNW 25 41 29.79 1009 10 16 0.00 0.00
9:55 pm 21:55 Clear 45 7.2 30 -1.2 56 56 WNW 23 37 29.79 1009 10 16 0.00 0.00
10:15 pm 22:15 Clear 45 7 30 -1.2 56 56 WNW 21 33 29.80 1009 10 16 0.00 0.00
10:35 pm 22:35 Clear 44 6.5 31 -0.8 60 60 WNW 23 37 29.80 1009 10 16 0.00 0.00
10:55 pm 22:55 Clear 44 6.5 31 -0.5 61 61 WNW 18 30 29.80 1009 10 16 0.00 0.00
11:15 pm 23:15 Clear 44 6.5 31 -0.5 61 61 W 20 31 29.80 1009 10 16 0.00 0.00
11:35 pm 23:35 Clear 43 6.3 31 -0.5 62 62 W 22 35 29.81 1009 10 16 0.00 0.00
11:55 pm 23:55 Clear 43 6.3 31 -0.7 61 61 W 21 33 29.81 1009 10 16 0.00 0.00

Powered by AerisWeather